[[{"header":{"parameterUnit":"m.s-1","parameterCategory":1,"la1":30.2991,"la2":30.254,"lo1":-89.0895,"lo2":-89.0444,"dy":0.0017,"dx":0.0017,"nx":28,"ny":28,"refTime":"2023-03-16T21:00:00:Z","depth":0,"parameterNumber":2,"parameterNumberName":"U-component_of_WINDS"},"data":[0,0,0,0,0,0,0,0,0,0,0,0,0,0,0,0,0,0,0,0,0,0,0,0,0,0,0,0,0,0,0,0,0,0,0,0,0,0,0,0,0,0,0,0,0,0,0,0,0,0,0,0,0,0,0,0,0,0,-1.951,-1.951,0,-1.9491,-1.9491,-1.9491,-1.9484,-1.9484,-1.9484,-1.9484,-1.9465,-1.9464,-1.9464,0,0,0,0,0,0,0,0,0,0,0,0,0,-1.954,-1.954,-1.951,-1.951,-1.951,-1.9491,-1.9491,-1.9491,-1.9484,-1.9484,-1.9484,-1.9484,-1.9465,-1.9464,-1.9464,0,0,0,0,0,0,0,0,0,0,0,0,0,-1.9525,-1.9539,-1.951,-1.9504,-1.9503,-1.9491,-1.9491,-1.9491,-1.9484,-1.9484,-1.9484,-1.9484,-1.9465,-1.9465,-1.9464,-1.9456,0,0,-1.9461,-1.9461,0,0,0,0,0,0,0,0,-1.9526,-1.9524,-1.9505,-1.9504,-1.9504,-1.949,-1.9495,-1.9479,-1.9484,-1.9491,-1.9484,-1.9484,-1.9473,-1.9472,-1.9468,-1.9455,-1.9455,-1.9461,-1.946,-1.946,-1.946,0,0,0,0,0,0,0,-1.9527,-1.9524,-1.9503,-1.9505,-1.9504,-1.9502,-1.95,-1.9492,-1.9482,-1.9491,-1.949,-1.9488,-1.9473,-1.9469,-1.9467,-1.9454,-1.9461,-1.946,-1.946,-1.9459,-1.9435,-1.9434,0,0,0,0,0,0,-1.9529,-1.9525,-1.9503,-1.9502,-1.9515,-1.9502,-1.9499,-1.9494,-1.9482,-1.948,-1.9488,-1.9488,-1.947,-1.9469,-1.9467,-1.9457,-1.946,-1.9459,-1.9459,-1.9435,-1.9434,-1.9434,0,0,0,0,0,0,-1.9529,-1.9527,-1.9504,-1.9514,-1.9511,-1.9501,-1.9495,-1.9494,-1.949,-1.948,-1.9478,-1.9486,-1.947,-1.9468,-1.9459,-1.9456,-1.9459,-1.9458,-1.9435,-1.9435,-1.9434,-1.9438,0,0,0,0,0,0,-1.953,-1.9527,-1.9524,-1.9514,-1.951,-1.9496,-1.9495,-1.9493,-1.9488,-1.9488,-1.9477,-1.9476,-1.947,-1.946,-1.9458,-1.9455,-1.9457,-1.9435,-1.9435,-1.9434,-1.9438,-1.9438,-1.9438,0,0,0,0,0,-1.9531,-1.9526,-1.9524,-1.9522,-1.9506,-1.9496,-1.9494,-1.9488,-1.9488,-1.9485,-1.9479,-1.9476,-1.9457,-1.9459,-1.9457,-1.9454,-1.9435,-1.9435,-1.9435,-1.9438,-1.9438,-1.9438,0,0,0,0,0,0,-1.9537,-1.9525,-1.9522,-1.9513,-1.9506,-1.9495,-1.9491,-1.9488,-1.9481,-1.9481,-1.9473,-1.9471,-1.9462,-1.9457,-1.946,-1.9446,-1.9446,-1.9445,-1.945,-1.9449,-1.9449,-1.9451,-1.9457,0,0,0,0,0,-1.9537,-1.953,-1.952,-1.9513,-1.9509,-1.9501,-1.9496,-1.9492,-1.9484,-1.9481,-1.9474,-1.9466,-1.9459,-1.9454,-1.9446,-1.9437,-1.9435,-1.9434,-1.9434,-1.9434,-1.9433,-1.9428,-1.9428,-1.9433,-1.9433,-1.9433,0,0,-1.9537,-1.953,-1.9526,-1.9513,-1.9507,-1.95,-1.9498,-1.9491,-1.9485,-1.948,-1.9471,-1.9465,-1.9456,-1.9448,-1.9443,-1.9443,-1.9431,-1.9434,-1.9434,-1.9433,-1.9428,-1.9427,-1.9427,-1.9433,-1.9433,-1.9433,0,0,-1.9534,-1.9527,-1.9521,-1.9515,-1.9505,-1.95,-1.9498,-1.9488,-1.9484,-1.9475,-1.9471,-1.9464,-1.9451,-1.9445,-1.944,-1.9434,-1.9431,-1.9432,-1.9431,-1.9427,-1.9426,-1.9426,-1.9424,-1.9423,-1.9431,-1.9431,-1.9431,0,-1.9535,-1.9524,-1.9518,-1.951,-1.9505,-1.95,-1.9493,-1.9488,-1.9476,-1.9473,-1.9473,-1.9456,-1.945,-1.9439,-1.9438,-1.9434,-1.9432,-1.9433,-1.9427,-1.9426,-1.9426,-1.9424,-1.9423,-1.9432,-1.9432,-1.9432,-1.9432,0,-1.9526,-1.9519,-1.9515,-1.9504,-1.9498,-1.9491,-1.9484,-1.9479,-1.9475,-1.947,-1.946,-1.9453,-1.9443,-1.944,-1.9437,-1.9429,-1.943,-1.9428,-1.9428,-1.9425,-1.9423,-1.9422,-1.9432,-1.9432,-1.9432,-1.9432,0,0,-1.9526,-1.9511,-1.951,-1.9505,-1.9494,-1.9488,-1.9481,-1.9472,-1.9468,-1.946,-1.9454,-1.9443,-1.9442,-1.9436,-1.9432,-1.9428,-1.9423,-1.9427,-1.9426,-1.9426,-1.9415,-1.9416,-1.9415,-1.9422,-1.9421,-1.9421,-1.9415,0,-1.9521,-1.9508,-1.9502,-1.9491,-1.9484,-1.9479,-1.9473,-1.9465,-1.946,-1.9453,-1.9448,-1.944,-1.9439,-1.9436,-1.9431,-1.9425,-1.9421,-1.9425,-1.9416,-1.9415,-1.9418,-1.9414,-1.9415,-1.941,-1.9415,-1.9414,-1.9414,0,-1.9513,-1.9506,-1.9494,-1.9484,-1.9481,-1.9476,-1.9467,-1.946,-1.9452,-1.9449,-1.9442,-1.9438,-1.9431,-1.9431,-1.942,-1.9423,-1.9419,-1.9415,-1.9415,-1.9414,-1.9415,-1.9412,-1.9408,-1.9407,-1.9413,-1.9413,-1.9413,0,-1.9514,-1.9501,-1.9492,-1.9488,-1.9476,-1.9472,-1.9467,-1.9459,-1.9454,-1.9446,-1.9443,-1.9434,-1.943,-1.9423,-1.9417,-1.9418,-1.9407,-1.9407,-1.9404,-1.9404,-1.9401,-1.9402,-1.9396,-1.9399,-1.9399,-1.9399,-1.9399,0,-1.9509,-1.9502,-1.9492,-1.9487,-1.9479,-1.9473,-1.9465,-1.946,-1.9452,-1.9446,-1.9441,-1.9435,-1.9428,-1.9421,-1.9416,-1.9408,-1.9406,-1.9403,-1.9401,-1.9403,-1.9403,-1.94,-1.94,-1.9399,-1.9399,-1.9399,-1.9399,0,-1.9508,-1.9501,-1.9492,-1.9481,-1.9478,-1.9473,-1.9464,-1.9459,-1.9454,-1.9446,-1.9443,-1.9435,-1.9427,-1.942,-1.9409,-1.9406,-1.9397,-1.9396,-1.94,-1.9399,-1.9396,-1.9397,-1.9388,-1.9387,-1.9391,-1.9391,-1.9391,0,-1.9506,-1.95,-1.9489,-1.9484,-1.9479,-1.9472,-1.9467,-1.946,-1.9454,-1.9445,-1.9441,-1.9432,-1.9425,-1.9412,-1.9405,-1.9396,-1.9395,-1.9392,-1.9393,-1.9395,-1.9395,-1.9395,-1.9394,-1.9392,-1.9392,-1.9392,-1.9392,0,-1.9501,-1.9498,-1.9491,-1.9482,-1.9476,-1.9468,-1.9461,-1.9458,-1.945,-1.9444,-1.9435,-1.943,-1.9419,-1.941,-1.9401,-1.9396,-1.9393,-1.9392,-1.9391,-1.9392,-1.9395,-1.9393,-1.94,-1.9392,-1.9392,-1.9392,-1.9392,-1.9392,-1.95,-1.9494,-1.9486,-1.9478,-1.9471,-1.9465,-1.9459,-1.9453,-1.9446,-1.9436,-1.9432,-1.9424,-1.9416,-1.9403,-1.9398,-1.9391,-1.9391,-1.9389,-1.9389,-1.9388,-1.9388,-1.9396,-1.9389,-1.9389,-1.9389,-1.9389,-1.9389,0,-1.9495,-1.9489,-1.9482,-1.9471,-1.9465,-1.9462,-1.9454,-1.9449,-1.9441,-1.9434,-1.9427,-1.9417,-1.9409,-1.9401,-1.9393,-1.9389,-1.9387,-1.9387,-1.9387,-1.9386,-1.9389,-1.9391,-1.9388,-1.9388,-1.9388,-1.9388,-1.9388,-1.9388,-1.9492,-1.9483,-1.9479,-1.9467,-1.9461,-1.9452,-1.9448,-1.9442,-1.9436,-1.9425,-1.9418,-1.9413,-1.9406,-1.9397,-1.9389,-1.9387,-1.9384,-1.9384,-1.9382,-1.9385,-1.9385,-1.9386,-1.9387,-1.9383,-1.9383,-1.9378,-1.9378,-1.9378]},{"header":{"parameterUnit":"m.s-1","parameterCategory":1,"la1":30.2991,"la2":30.254,"lo1":-89.0895,"lo2":-89.0444,"dy":0.0017,"dx":0.0017,"nx":28,"ny":28,"refTime":"2023-03-16T21:00:00:Z","depth":0,"parameterNumber":3,"parameterNumberName":"V-component_of_WINDS"},"data":[0,0,0,0,0,0,0,0,0,0,0,0,0,0,0,0,0,0,0,0,0,0,0,0,0,0,0,0,0,0,0,0,0,0,0,0,0,0,0,0,0,0,0,0,0,0,0,0,0,0,0,0,0,0,0,0,0,0,6.0035,6.0035,0,6.0001,6.0001,6.0,5.9959,5.9958,5.9957,5.9957,5.9918,5.9918,5.9917,0,0,0,0,0,0,0,0,0,0,0,0,0,6.0062,6.0062,6.0035,6.0035,6.0034,6.0001,6.0001,6.0,5.9959,5.9958,5.9957,5.9956,5.9918,5.9918,5.9917,0,0,0,0,0,0,0,0,0,0,0,0,0,6.0041,6.0062,6.0035,6.001,6.0007,6.0001,6.0001,6.0,5.9959,5.9958,5.9957,5.9956,5.9918,5.9918,5.9917,5.9932,0,0,5.9915,5.9915,0,0,0,0,0,0,0,0,6.0043,6.004,6.0014,6.0011,6.0008,5.9983,5.9996,5.9977,5.9959,5.9977,5.9957,5.9956,5.994,5.9938,5.9933,5.993,5.9929,5.9915,5.9915,5.9914,5.9914,0,0,0,0,0,0,0,6.0044,6.0042,6.0021,6.0013,6.001,5.9999,5.9995,5.9992,5.9964,5.9975,5.9972,5.9969,5.9938,5.9934,5.9932,5.9928,5.9915,5.9914,5.9914,5.9914,5.9938,5.9939,0,0,0,0,0,0,6.005,6.0043,6.0022,6.002,6.0024,6.0,5.9995,5.9992,5.9964,5.9959,5.997,5.9967,5.9936,5.9933,5.9931,5.9948,5.9914,5.9914,5.9913,5.9937,5.9939,5.994,0,0,0,0,0,0,6.005,6.0048,6.0024,6.0031,6.0027,6.0,5.9997,5.9992,5.9987,5.996,5.9955,5.9971,5.9935,5.9931,5.9933,5.9946,5.9913,5.9913,5.9936,5.9938,5.9939,5.9982,0,0,0,0,0,0,6.0051,6.0049,6.0055,6.0031,6.0027,6.0027,5.9998,5.9992,5.9987,5.9983,5.9959,5.9954,5.9934,5.9934,5.9932,5.9944,5.9912,5.9935,5.9937,5.9939,5.9979,5.9985,5.9989,0,0,0,0,0,6.0053,6.0067,6.0055,6.0053,6.0034,6.0028,6.0025,6.0002,5.9988,5.9994,5.9977,5.9955,5.9945,5.9935,5.9932,5.9944,5.9934,5.9936,5.9938,5.9977,5.9984,5.9989,0,0,0,0,0,0,6.009,6.0063,6.005,6.0057,6.0046,6.0021,6.0027,6.001,6.0001,5.9998,5.9969,5.9964,5.9969,5.9957,5.9946,5.9959,5.9936,5.9938,5.9966,5.9973,5.9978,5.998,5.9912,0,0,0,0,0,6.01,6.0098,6.0074,6.0083,6.0078,6.0054,6.0051,6.0035,6.0021,6.0015,5.9998,5.9984,5.9978,5.9975,5.9967,5.9978,5.9972,5.9985,5.999,5.9994,5.9996,6.0002,6.0008,5.9947,5.9947,5.9947,0,0,6.0118,6.0104,6.0104,6.009,6.0079,6.0079,6.005,6.005,6.0049,6.0014,6.0016,6.0003,5.9986,5.9992,5.9994,5.9982,6.0012,5.9997,6.0001,6.0,6.0005,6.0011,6.0016,5.9949,5.9949,5.9948,0,0,6.0153,6.0141,6.0148,6.0138,6.0123,6.0107,6.0109,6.0088,6.0079,6.008,6.0055,6.0053,6.0042,6.0032,6.0026,6.0059,6.0039,6.0057,6.0084,6.009,6.0095,6.0099,6.0112,6.0116,6.0059,6.006,6.006,0,6.0178,6.0176,6.0153,6.0155,6.015,6.0122,6.0129,6.012,6.0102,6.0099,6.0087,6.0075,6.0062,6.0066,6.0075,6.007,6.0071,6.0059,6.0096,6.01,6.0103,6.0115,6.012,6.0062,6.0062,6.0061,6.0061,0,6.0208,6.0207,6.0215,6.0201,6.0197,6.0201,6.0179,6.0177,6.0162,6.0148,6.015,6.0133,6.0123,6.0123,6.0107,6.0126,6.0119,6.0102,6.0079,6.0112,6.0123,6.0127,6.0065,6.0064,6.0064,6.0063,0,0,6.0263,6.0239,6.0242,6.0236,6.0218,6.0217,6.022,6.0212,6.0212,6.0201,6.0204,6.0197,6.0182,6.0175,6.0158,6.0163,6.0192,6.0145,6.0144,6.0155,6.0213,6.0226,6.0232,6.018,6.018,6.0181,6.0215,0,6.0294,6.0299,6.028,6.0291,6.029,6.0264,6.0268,6.0257,6.0244,6.0242,6.0227,6.0224,6.0203,6.0199,6.0203,6.0188,6.0203,6.0185,6.0181,6.0181,6.0186,6.0237,6.025,6.0283,6.0219,6.0219,6.022,0,6.033,6.0324,6.0335,6.0319,6.0318,6.0321,6.0313,6.0311,6.0299,6.0289,6.0283,6.0264,6.0267,6.0245,6.0249,6.0237,6.0234,6.0227,6.0227,6.0226,6.0202,6.0237,6.0293,6.0298,6.0226,6.0225,6.0225,0,6.037,6.0365,6.0371,6.0366,6.0347,6.0351,6.0342,6.0329,6.0327,6.0319,6.0317,6.031,6.0306,6.0301,6.0281,6.0267,6.0287,6.0263,6.0279,6.028,6.0283,6.0283,6.034,6.0282,6.0282,6.0282,6.0282,0,6.0407,6.0415,6.0389,6.0393,6.0401,6.0379,6.0388,6.0377,6.0366,6.0368,6.0344,6.0346,6.0319,6.0318,6.0302,6.0308,6.0306,6.0299,6.0294,6.0301,6.0302,6.0298,6.0295,6.0283,6.0283,6.0283,6.0282,0,6.0453,6.0436,6.0441,6.0423,6.0419,6.0426,6.0411,6.0414,6.0401,6.0403,6.0402,6.0381,6.0378,6.0358,6.035,6.034,6.0352,6.0343,6.0357,6.0354,6.037,6.0369,6.0426,6.0433,6.0371,6.0372,6.0372,0,6.0477,6.0483,6.0467,6.0467,6.046,6.046,6.0458,6.0437,6.0435,6.0423,6.0428,6.0424,6.0419,6.0417,6.0401,6.0395,6.0386,6.0407,6.0385,6.0392,6.0387,6.0387,6.0388,6.0411,6.0412,6.0412,6.0413,0,6.0522,6.0514,6.0512,6.0508,6.0506,6.0501,6.0495,6.0496,6.0473,6.0472,6.0471,6.0468,6.0462,6.0458,6.0451,6.0442,6.0424,6.042,6.0424,6.043,6.0438,6.0435,6.0369,6.0419,6.0418,6.0418,6.0417,6.0417,6.0558,6.0563,6.0553,6.0552,6.0546,6.0541,6.0543,6.0532,6.053,6.0524,6.0512,6.0513,6.0502,6.049,6.0483,6.0483,6.0472,6.0477,6.0478,6.048,6.0484,6.0439,6.0482,6.0481,6.0481,6.0481,6.0481,0,6.0603,6.0596,6.0595,6.0588,6.0588,6.0573,6.0566,6.0566,6.0567,6.056,6.0557,6.0556,6.0553,6.0538,6.0533,6.0536,6.0528,6.0536,6.0535,6.0534,6.0493,6.0491,6.0543,6.0543,6.0543,6.0543,6.0543,6.0543,6.0626,6.0634,6.0625,6.063,6.0622,6.0624,6.0621,6.0617,6.0611,6.0611,6.0609,6.06,6.0589,6.0585,6.0582,6.0577,6.0577,6.0588,6.0581,6.0542,6.0536,6.0531,6.0529,6.0588,6.0588,6.0621,6.0622,6.0622]}]]